FW1302 Weather Reports


time (UTC)temp
F
wind
direction
speed
knots
gust
knots
rain 1hr
in
rain 24hr
in
rain mn
in
humidity
%
barometer
mb
20260506191416 63 227 11.3 15.6 0.00 0.00 0.00 72 1030.8
20260506190514 63 225 9.6 11.3 0.00 0.00 0.00 72 1030.8
20260506184516 63 229 12.2 15.6 0.00 0.00 0.00 73 1030.8
20260506183615 62 235 10.4 15.6 0.00 0.00 0.00 73 1030.7
20260506183517 62 225 13.0 19.1 0.00 0.00 0.00 74 1030.8
20260506181516 62 213 11.3 13.9 0.00 0.00 0.00 74 1030.9
20260506180515 62 227 9.6 14.8 0.00 0.00 0.00 75 1030.7
20260506175515 62 229 11.3 16.5 0.00 0.00 0.00 75 1030.5
20260506174614 61 232 10.4 14.8 0.00 0.00 0.00 76 1030.6
20260506173616 61 224 10.4 13.9 0.00 0.00 0.00 77 1030.8
20260506172616 60 224 9.6 14.8 0.00 0.00 0.00 78 1030.8
20260506171616 60 231 10.4 15.6 0.00 0.00 0.00 79 1030.7
20260506170616 60 218 7.8 10.4 0.00 0.00 0.00 79 1030.6
20260506165616 59 229 9.6 13.0 0.00 0.00 0.00 79 1030.5
20260506165517 59 226 11.3 14.8 0.00 0.00 0.00 78 1030.4
20260506164516 59 226 9.6 13.9 0.00 0.00 0.00 80 1030.2
20260506163614 59 205 8.7 12.2 0.00 0.00 0.00 80 1030.4
20260506162617 59 223 7.8 10.4 0.00 0.00 0.00 80 1030.3
20260506161615 59 234 8.7 11.3 0.00 0.00 0.00 81 1030.1
20260506155716 58 226 8.7 13.0 0.00 0.00 0.00 80 1030.6
20260506154714 58 224 11.3 16.5 0.00 0.00 0.00 81 1030.8
20260506153715 58 225 10.4 13.9 0.00 0.00 0.00 81 1030.8
20260506152814 58 226 12.2 17.4 0.00 0.00 0.00 81 1030.8
20260506151816 58 235 9.6 13.0 0.00 0.00 0.00 81 1030.7
20260506145914 58 222 9.6 15.6 0.00 0.00 0.00 80 1030.3
20260506144915 58 225 9.6 14.8 0.00 0.00 0.00 82 1030.0
20260506143914 58 222 8.7 13.0 0.00 0.00 0.00 82 1030.0
20260506142917 58 223 5.2 7.8 0.00 0.00 0.00 82 1029.9
20260506141915 58 222 6.1 9.6 0.00 0.00 0.00 82 1029.9
20260506140916 58 210 7.8 12.2 0.00 0.00 0.00 83 1029.8
20260506133918 58 225 7.8 11.3 0.00 0.00 0.00 83 1029.7
20260506133815 58 223 6.1 7.8 0.00 0.00 0.00 83 1029.6
20260506132816 57 209 3.5 7.0 0.00 0.00 0.00 83 1029.6
20260506131817 58 216 5.2 9.6 0.00 0.00 0.00 82 1029.5
20260506130815 58 217 7.8 12.2 0.00 0.00 0.00 82 1029.6
20260506125815 58 218 7.8 10.4 0.00 0.00 0.00 82 1029.5
20260506125716 58 218 7.8 10.4 0.00 0.00 0.00 82 1029.5
20260506124716 58 218 4.3 6.1 0.00 0.00 0.00 82 1029.6
20260506123716 58 217 7.0 9.6 0.00 0.00 0.00 82 1029.6
20260506122717 58 224 6.1 7.8 0.00 0.00 0.00 81 1029.5
20260506120714 59 221 6.1 10.4 0.00 0.00 0.00 81 1029.1
20260506115718 59 224 8.7 10.4 0.00 0.00 0.00 80 1029.2
20260506114715 59 225 7.8 10.4 0.00 0.00 0.00 80 1029.0
20260506113717 59 223 4.3 6.1 0.00 0.00 0.00 80 1028.9
20260506112814 59 225 6.1 7.8 0.00 0.00 0.00 80 1028.9
20260506111815 59 225 4.3 7.0 0.00 0.00 0.00 80 1028.9
20260506105914 60 225 7.0 9.6 0.00 0.00 0.00 79 1028.6
20260506104915 60 225 6.1 7.8 0.00 0.00 0.00 78 1028.4
20260506104014 60 225 6.1 9.6 0.00 0.00 0.00 77 1028.3
20260506103016 60 225 7.8 10.4 0.00 0.00 0.00 77 1028.1
20260506102114 60 226 7.0 8.7 0.00 0.00 0.00 77 1028.1
20260506101116 60 228 6.1 8.7 0.00 0.00 0.00 77 1028.1
20260506095213 60 216 5.2 9.6 0.00 0.00 0.00 76 1028.0
20260506094215 60 225 6.1 8.7 0.00 0.00 0.00 76 1028.0
20260506093216 61 230 5.2 6.1 0.00 0.00 0.00 75 1028.1
20260506092314 61 229 7.0 9.6 0.00 0.00 0.00 75 1027.9
20260506091314 61 224 6.1 9.6 0.00 0.00 0.00 75 1027.9
20260506090414 61 225 4.3 7.8 0.00 0.00 0.00 75 1027.9
20260506085416 61 228 6.1 7.0 0.00 0.00 0.00 75 1028.0
20260506084414 61 228 7.0 9.6 0.00 0.00 0.00 75 1028.0
20260506083416 61 230 5.2 7.0 0.00 0.00 0.00 75 1028.1
20260506082514 61 225 4.3 6.1 0.00 0.00 0.00 74 1027.9
20260506081516 61 225 5.2 6.1 0.00 0.00 0.00 74 1027.8
20260506073515 61 232 6.1 7.8 0.00 0.00 0.00 74 1027.5
20260506072516 61 225 6.1 7.8 0.00 0.00 0.00 74 1027.5
20260506070616 61 225 4.3 6.1 0.00 0.00 0.00 73 1027.5
20260506061620 61 239 7.8 10.4 0.00 0.00 0.00 73 1027.2
20260506050722 61 225 7.8 9.6 0.00 0.00 0.00 74 1026.9
20260506044723 61 233 7.0 9.6 0.00 0.00 0.00 73 1026.7
20260506043721 61 226 6.1 10.4 0.00 0.00 0.00 73 1026.4
20260506042722 61 229 7.8 10.4 0.00 0.00 0.00 73 1026.4
20260506041721 61 232 7.0 10.4 0.00 0.00 0.00 73 1026.3
20260506040721 61 227 7.0 9.6 0.00 0.00 0.00 72 1026.4
20260506035723 61 225 7.0 8.7 0.00 0.00 0.00 72 1026.2
20260506034721 61 223 7.8 10.4 0.00 0.00 0.00 73 1026.1
20260506033723 61 224 6.1 8.7 0.00 0.00 0.00 73 1026.0
20260506032820 61 235 10.4 14.8 0.00 0.00 0.00 71 1025.8
20260506031823 61 225 7.8 15.6 0.00 0.00 0.00 72 1025.8
20260506030921 61 223 8.7 12.2 0.00 0.00 0.00 71 1025.7
20260506024023 62 226 8.7 13.0 0.00 0.00 0.00 70 1025.3
20260506023021 62 224 9.6 13.9 0.00 0.00 0.00 68 1025.1
20260506022022 63 228 10.4 13.9 0.00 0.00 0.00 69 1025.0
20260506020921 63 222 10.4 14.8 0.00 0.00 0.00 68 1025.0
20260506014923 63 218 10.4 14.8 0.00 0.00 0.00 68 1025.0
20260506013924 63 228 10.4 15.6 0.00 0.00 0.00 68 1025.0
20260506013021 64 224 12.2 15.6 0.00 0.00 0.00 68 1024.9
20260506012022 64 229 11.3 15.6 0.00 0.00 0.00 66 1024.7
20260506010021 64 223 9.6 13.9 0.00 0.00 0.00 67 1024.7
20260506005022 64 225 13.0 17.4 0.00 0.00 0.00 66 1024.7
20260506002022 64 213 11.3 17.4 0.00 0.00 0.00 66 1024.5
20260506001022 65 226 15.6 19.1 0.00 0.00 0.00 64 1024.6
20260506000022 65 222 13.9 18.2 0.00 0.00 0.00 65 1024.7
20260505235021 65 221 13.0 17.4 0.00 0.00 0.00 65 1024.8
20260505234921 65 225 14.8 19.1 0.00 0.00 0.00 65 1024.7
20260505233921 65 225 17.4 20.9 0.00 0.00 0.00 64 1024.9
20260505232922 65 226 13.9 17.4 0.00 0.00 0.00 65 1024.8
20260505231921 65 224 12.2 15.6 0.00 0.00 0.00 65 1024.7
20260505230922 65 221 13.9 18.2 0.00 0.00 0.00 65 1024.8
20260505230020 65 226 12.2 16.5 0.00 0.00 0.00 65 1025.0
20260505224120 65 219 15.6 18.2 0.00 0.00 0.00 66 1025.0
20260505224021 65 225 11.3 15.6 0.00 0.00 0.00 66 1025.1
20260505223120 64 222 10.4 16.5 0.00 0.00 0.00 66 1025.2
20260505222121 64 210 12.2 15.6 0.00 0.00 0.00 66 1025.2
20260505221123 64 217 13.0 18.2 0.00 0.00 0.00 66 1025.3
20260505220221 64 225 10.4 13.0 0.00 0.00 0.00 65 1025.5
20260505220120 64 234 13.0 20.0 0.00 0.00 0.00 66 1025.1
20260505214122 64 229 14.8 21.7 0.00 0.00 0.00 66 1025.5
20260505213121 64 226 13.9 20.0 0.00 0.00 0.00 65 1025.6
20260505212121 64 225 11.3 14.8 0.00 0.00 0.00 67 1025.7
20260505211122 63 230 11.3 15.6 0.00 0.00 0.00 67 1025.6
20260505210122 64 227 13.9 16.5 0.00 0.00 0.00 66 1025.9
20260505205122 64 224 12.2 14.8 0.00 0.00 0.00 65 1025.8
20260505204121 63 223 12.2 18.2 0.00 0.00 0.00 64 1026.0
20260505203120 63 226 13.0 18.2 0.00 0.00 0.00 65 1025.9
20260505202121 63 225 14.8 20.0 0.00 0.00 0.00 65 1026.2
20260505201120 63 220 9.6 13.0 0.00 0.00 0.00 67 1026.3
20260505201020 63 227 10.4 15.6 0.00 0.00 0.00 67 1026.2
20260505195120 62 220 10.4 13.9 0.00 0.00 0.00 68 1026.3
20260505194121 62 225 10.4 13.9 0.00 0.00 0.00 69 1026.3
20260505193022 62 206 10.4 17.4 0.00 0.00 0.00 70 1026.5